Location: Mococo
(38.0255°N, 122.1161°W)
Time: 00:36:28
(UTC+00:00)

Cosmos 2100 Rocket - Pass Details

Date: 18 May 2026
Orbit: 956 x 999 km, 82.9° (Epoch: 10 June)

Event Time Altitude Azimuth Distance (km) Brightness Sun altitude
Rises 03:44:29 0° 193° (SSW) 3,650 6.8 -6.1°
Reaches altitude 10° 03:46:59 10° 196° (SSW) 2,713 6.2 -6.5°
Maximum altitude 03:53:10 66° 278° (W) 1,067 4.5 -7.6°
Drops below altitude 10° 03:59:28 10° 1° (N) 2,759 6.8 -8.6°
Sets 04:02:02 0° 4° (N) 3,716 7.5 -9.0°
